Weather History for KEFD - February, 2014

Change the Weather History Date:

Saturday, February 22, 2014

  Actual Average (WUND) Record (WUND)
Temperature  
Mean Temperature 60 °F -  
Max Temperature 69 °F - - (-1)
Min Temperature 50 °F - - (-1)
Degree Days  
Heating Degree Days 6    
Growing Degree Days 10 (Base 50)    
Moisture  
Dew Point 48 °F    
Average Humidity 66    
Maximum Humidity 88    
Minimum Humidity 53    
Precipitation  
Precipitation 0.00 in - - ()
Sea Level Pressure  
Sea Level Pressure 30.03 in    
Wind  
Wind Speed 4 mph (East)    
Max Wind Speed 16 mph    
Max Gust Speed 21 mph    
Visibility 10 miles    
Events      
Averages and records for this station are not official NWS values.
T = Trace of Precipitation, MM = Missing Value Source: NWS Daily Summary

Daily Weather History Graph

Daily Weather History Graph

Search for Another Location

Airport or City:

Trip Planner

Search our weather history database for the weather conditions in past years. The results will help you decide how hot, cold, wet, or windy it might be!

Date:

Astronomy

Feb. 22, 2014 Rise Set
Actual Time 6:53 AM CST 6:15 PM CST
Civil Twilight 6:29 AM CST 6:39 PM CST
Nautical Twilight 6:01 AM CST 7:07 PM CST
Astronomical Twilight 5:33 AM CST 7:34 PM CST
Moon 12:39 AM CST (2/22) 11:38 AM CST (2/22)
Length of Visible Light 12h 09m
Length of Day
11h 21m
Waning Gibbous, 50% of the Moon is Illuminated
Feb 22
Waning Gibbous
Mar 1
New
Mar 8
First Quarter
Mar 16
Full
Mar 23
Last Quarter

Hourly Weather History & Observations

Time (CST) Temp. Dew Point Humidity Pressure Visibility Wind Dir Wind Speed Gust Speed Precip Events Conditions
12:50 AM 50.0 °F 33.8 °F 54% 30.10 in 10.0 mi Calm Calm - N/A   Mostly Cloudy
1:50 AM 51.8 °F 37.4 °F 58% 30.08 in 10.0 mi Calm Calm - N/A   Mostly Cloudy
2:50 AM 53.6 °F 37.4 °F 54% 30.06 in 10.0 mi Calm Calm - N/A   Mostly Cloudy
3:50 AM 53.6 °F 39.2 °F 58% 30.05 in 10.0 mi Calm Calm - N/A   Mostly Cloudy
4:50 AM 51.8 °F 39.2 °F 62% 30.05 in 10.0 mi Calm Calm - N/A   Mostly Cloudy
5:50 AM 51.8 °F 41.0 °F 67% 30.06 in 10.0 mi Calm Calm - N/A   Scattered Clouds
6:50 AM 51.8 °F 44.6 °F 76% 30.08 in 10.0 mi NE 3.5 mph - N/A   Scattered Clouds
7:50 AM 51.8 °F 46.4 °F 82% 30.08 in 10.0 mi East 3.5 mph - N/A   Scattered Clouds
8:50 AM 59.0 °F 50.0 °F 72% 30.09 in 10.0 mi ESE 8.1 mph - N/A   Scattered Clouds
9:50 AM 62.6 °F 51.8 °F 68% 30.09 in 10.0 mi ESE 11.5 mph - N/A   Scattered Clouds
10:50 AM 64.4 °F 50.0 °F 59% 30.07 in 10.0 mi ESE 13.8 mph - N/A   Scattered Clouds
11:50 AM 66.2 °F 50.0 °F 56% 30.07 in 10.0 mi ESE 13.8 mph 20.7 mph N/A   Scattered Clouds
12:50 PM 69.8 °F 53.6 °F 56% 30.04 in 10.0 mi ESE 16.1 mph - N/A   Scattered Clouds
1:50 PM 69.8 °F 51.8 °F 53% 30.02 in 10.0 mi East 12.7 mph - N/A   Mostly Cloudy
2:50 PM 68.0 °F 51.8 °F 56% 29.98 in 10.0 mi East 11.5 mph - N/A   Mostly Cloudy
3:50 PM 68.0 °F 51.8 °F 56% 29.97 in 10.0 mi East 11.5 mph - N/A   Mostly Cloudy
4:50 PM 64.4 °F 51.8 °F 64% 29.96 in 10.0 mi ESE 6.9 mph - N/A   Mostly Cloudy
5:50 PM 62.6 °F 51.8 °F 68% 29.96 in 10.0 mi ESE 8.1 mph - N/A   Mostly Cloudy
6:50 PM 60.8 °F 53.6 °F 77% 29.96 in 10.0 mi East 4.6 mph - N/A   Overcast
8:50 PM 62.6 °F 53.6 °F 72% 29.97 in 10.0 mi ESE 5.8 mph - N/A   Overcast
9:50 PM 62.6 °F 55.4 °F 77% 29.97 in 10.0 mi East 4.6 mph - N/A   Mostly Cloudy
10:50 PM 62.6 °F 55.4 °F 77% 29.96 in 10.0 mi East 4.6 mph - N/A   Overcast
11:50 PM 62.6 °F 59.0 °F 88% 29.95 in 4.0 mi East 5.8 mph - N/A   Overcast